Regional Weather Roundup
Issued by NWS Goodland, KS

Home | Current Version | Previous Version | Text Only | Print | Product List | Glossary Off
Versions: 1 2 3 4 5 6 7 8 9 10 11 12 13 14 15 16 17 18 19 20 21 22 23 24 25 26 27 28 29 30 31 32 33 34 35 36 37 38 39 40 41 42 43 44 45 46 47 48 49 50

000
ASUS43 KGLD 191559
RWRGLD

GOODLAND FORECAST AREA HOURLY WEATHER ROUNDUP
NATIONAL WEATHER SERVICE GOODLAND KS
900 AM MST THU JAN 19 2017

...OFFICIAL OBSERVATIONS...

CITY           SKY/WX    TMP DP  RH WIND       PRES   REMARKS
GOODLAND KS    FOG       28  28 100 W6        29.61R VSB 1/4
HILL CITY KS   CLOUDY    43  43 100 SE5       29.65F FOG
IMPERIAL NEB   SUNNY     29  23  78 CALM      29.63R
MCCOOK NEB     FOG       36  36 100 CALM      29.64R VSB 1/4
AKRON CO       CLOUDY    32  21  64 W12       29.61R
BURLINGTON CO  SUNNY     33  25  72 W8        29.61R
LIMON CO       CLOUDY    34  23  64 NW3       29.63S
$$

...UNOFFICIAL OBSERVATIONS...

CITY           SKY/WX    TMP DP  RH WIND       PRES   REMARKS
LENORA KS        N/A     31  32 100 CALM        N/A
TRENTON NEB      N/A     31  32 100 CALM        N/A
KIT CARSON CO    N/A     33  25  73 CALM        N/A
YUMA CO        FAIR      27  19  74 W12       29.61R WCI  16
$$



USA.gov is the U.S. government's official web portal to all federal, state and local government web resources and services.